User: anonymous   Login
Location: Caltech
(34.1382°N, 118.1253°W)
Time: 04:23:13
(UTC-07:00)
Language:

SO-67 - Orbit

View from above orbital plane
View from above orbital plane
View from above satellite
View from above satellite

Ground track
Ground track

The orbit data is extracted from the following two-line orbital elements,

1 35870U 09049F   15187.10738506  .00009335  00000-0  21860-3 0  9997
2 35870 097.1339 203.0307 0003098 116.4856 315.8444 15.42316829323034
Epoch (UTC): 06 July 2015 02:34:38
Eccentricity: 0.0003098
inclination: 97.1339°
perigee height: 437 km
apogee height: 441 km
right ascension of ascending node: 203.0307°
argument of perigee: 116.4856°
revolutions per day: 15.42316829
mean anomaly at epoch: 315.8444°
orbit number at epoch: 32303

The dashed part of the orbit path shows where the satellite is in the earth's shadow,  

DLR